• în România
  • Lista ţărilor
  • Pe 7 zile
  • Temperatura apei
  • Hartă satelitară
  • Meteo pe hartă
  • Widget-uri
  • user-avatar
    Intrare

    Meteo pe oră la Folkern

    Astăzi, 18 Februarie, Duminică

    Timp Temperatura Precipitaţii Vânt Presiune Umiditate
    00:00 +4°C° 0 mm 3 m/s 761 mmHg 71%
    01:00 +4°C° 0 mm 4 m/s 761 mmHg 73%
    02:00 +3°C° 0 mm 5 m/s 761 mmHg 75%
    03:00 +5°C° 0 mm 5 m/s 761 mmHg 77%
    04:00 +4°C° 0 mm 6 m/s 761 mmHg 79%
    05:00 +4°C° 0 mm 6 m/s 761 mmHg 81%
    06:00 +4°C° 0 mm 7 m/s 760 mmHg 82%
    07:00 +4°C° 0 mm 7 m/s 760 mmHg 82%
    08:00 +4°C° 0 mm 8 m/s 760 mmHg 82%
    09:00 +3°C° 0 mm 9 m/s 760 mmHg 82%
    10:00 +3°C° 0 mm 9 m/s 759 mmHg 80%
    11:00 +3°C° 0 mm 10 m/s 759 mmHg 78%
    12:00 +5°C° 0 mm 10 m/s 759 mmHg 76%
    13:00 +5°C° 0,2 mm 10 m/s 759 mmHg 77%
    14:00 +5°C° 0,2 mm 10 m/s 758 mmHg 78%
    15:00 +4°C° 0,2 mm 11 m/s 758 mmHg 79%
    16:00 +5°C° 0,6 mm 10 m/s 758 mmHg 83%
    17:00 +5°C° 0,6 mm 10 m/s 758 mmHg 87%
    18:00 +5°C° 0,6 mm 10 m/s 758 mmHg 91%
    19:00 +5°C° 0,5 mm 9 m/s 758 mmHg 92%
    20:00 +6°C° 0,5 mm 8 m/s 758 mmHg 93%
    21:00 +6°C° 0,5 mm 7 m/s 758 mmHg 95%
    22:00 +6°C° 0,5 mm 7 m/s 758 mmHg 96%
    23:00 +6°C° 0,5 mm 7 m/s 758 mmHg 96%

    Mâine, 19 Februarie, Luni

    Timp Temperatura Precipitaţii Vânt Presiune Umiditate
    00:00 +8°C° 0,5 mm 7 m/s 758 mmHg 97%
    01:00 +8°C° 0,4 mm 6 m/s 758 mmHg 97%
    02:00 +8°C° 0,4 mm 6 m/s 758 mmHg 98%
    03:00 +8°C° 0,4 mm 6 m/s 758 mmHg 98%
    04:00 +8°C° 0,2 mm 6 m/s 758 mmHg 97%
    05:00 +8°C° 0,2 mm 6 m/s 758 mmHg 97%
    06:00 +8°C° 0,2 mm 6 m/s 758 mmHg 97%
    07:00 +8°C° 0 mm 6 m/s 759 mmHg 96%
    08:00 +8°C° 0 mm 6 m/s 759 mmHg 95%
    09:00 +8°C° 0 mm 6 m/s 759 mmHg 94%
    10:00 +8°C° 0 mm 6 m/s 759 mmHg 93%
    11:00 +9°C° 0 mm 6 m/s 760 mmHg 92%
    12:00 +9°C° 0 mm 7 m/s 760 mmHg 91%
    13:00 +9°C° 0,2 mm 7 m/s 760 mmHg 93%
    14:00 +8°C° 0,2 mm 7 m/s 760 mmHg 94%
    15:00 +8°C° 0,2 mm 7 m/s 760 mmHg 95%
    16:00 +8°C° 0,4 mm 7 m/s 761 mmHg 93%
    17:00 +8°C° 0,4 mm 7 m/s 761 mmHg 90%
    18:00 +6°C° 0,4 mm 7 m/s 761 mmHg 87%
    19:00 +6°C° 0,1 mm 7 m/s 762 mmHg 87%
    20:00 +6°C° 0,1 mm 7 m/s 763 mmHg 86%
    21:00 +6°C° 0,1 mm 7 m/s 764 mmHg 86%
    22:00 +5°C° 0 mm 7 m/s 764 mmHg 84%
    23:00 +5°C° 0 mm 7 m/s 765 mmHg 82%

    Poimâine, 20 Februarie, Marţi

    Timp Temperatura Precipitaţii Vânt Presiune Umiditate
    00:00 +5°C° 0 mm 8 m/s 765 mmHg 80%
    01:00 +5°C° 0 mm 7 m/s 766 mmHg 78%
    02:00 +5°C° 0 mm 7 m/s 766 mmHg 76%
    03:00 +5°C° 0 mm 7 m/s 767 mmHg 74%
    04:00 +5°C° 0 mm 7 m/s 767 mmHg 74%
    05:00 +4°C° 0 mm 7 m/s 768 mmHg 74%
    06:00 +4°C° 0 mm 7 m/s 769 mmHg 74%
    07:00 +4°C° 0 mm 7 m/s 769 mmHg 73%
    08:00 +4°C° 0 mm 7 m/s 770 mmHg 73%
    09:00 +4°C° 0 mm 6 m/s 770 mmHg 72%
    10:00 +5°C° 0 mm 6 m/s 771 mmHg 69%
    11:00 +5°C° 0 mm 6 m/s 771 mmHg 66%
    12:00 +6°C° 0 mm 5 m/s 772 mmHg 63%
    13:00 +6°C° 0 mm 5 m/s 772 mmHg 63%
    14:00 +6°C° 0 mm 5 m/s 772 mmHg 63%
    15:00 +6°C° 0 mm 4 m/s 772 mmHg 64%
    16:00 +6°C° 0 mm 4 m/s 772 mmHg 66%
    17:00 +6°C° 0 mm 4 m/s 772 mmHg 69%
    18:00 +5°C° 0 mm 4 m/s 772 mmHg 71%
    19:00 +5°C° 0 mm 3 m/s 773 mmHg 72%
    20:00 +5°C° 0 mm 3 m/s 773 mmHg 73%
    21:00 +5°C° 0 mm 2 m/s 773 mmHg 73%
    22:00 +5°C° 0 mm 2 m/s 773 mmHg 74%
    23:00 +5°C° 0 mm 2 m/s 773 mmHg 74%

    21 Februarie, Miercuri

    Timp Temperatura Precipitaţii Vânt Presiune Umiditate
    00:00 +5°C° 0 mm 2 m/s 773 mmHg 75%
    01:00 +6°C° 0 mm 1 m/s 773 mmHg 76%
    02:00 +5°C° 0 mm 1 m/s 773 mmHg 78%
    03:00 +5°C° 0 mm 1 m/s 772 mmHg 79%
    04:00 +5°C° 0 mm 1 m/s 772 mmHg 80%
    05:00 +5°C° 0 mm 1 m/s 772 mmHg 82%
    06:00 +4°C° 0 mm 2 m/s 772 mmHg 83%
    07:00 +4°C° 0 mm 2 m/s 772 mmHg 83%
    08:00 +3°C° 0 mm 3 m/s 771 mmHg 83%
    09:00 +3°C° 0 mm 4 m/s 771 mmHg 83%
    10:00 +4°C° 0 mm 4 m/s 771 mmHg 79%
    11:00 +5°C° 0 mm 4 m/s 771 mmHg 75%
    12:00 +5°C° 0 mm 5 m/s 771 mmHg 71%
    13:00 +5°C° 0 mm 5 m/s 770 mmHg 70%
    14:00 +5°C° 0 mm 5 m/s 770 mmHg 69%
    15:00 +5°C° 0 mm 6 m/s 770 mmHg 69%
    16:00 +4°C° 0 mm 6 m/s 769 mmHg 71%
    17:00 +4°C° 0 mm 6 m/s 769 mmHg 73%
    18:00 +3°C° 0 mm 7 m/s 769 mmHg 75%
    19:00 +3°C° 0 mm 7 m/s 768 mmHg 76%
    20:00 +2°C° 0 mm 8 m/s 768 mmHg 77%
    21:00 +2°C° 0 mm 8 m/s 768 mmHg 78%
    22:00 +2°C° 0 mm 8 m/s 768 mmHg 77%
    23:00 +2°C° 0 mm 9 m/s 768 mmHg 76%

    22 Februarie, Joi

    Timp Temperatura Precipitaţii Vânt Presiune Umiditate
    00:00 +2°C° 0 mm 9 m/s 767 mmHg 75%
    01:00 +2°C° 0 mm 10 m/s 767 mmHg 75%
    02:00 +2°C° 0 mm 10 m/s 767 mmHg 75%
    03:00 +2°C° 0 mm 10 m/s 767 mmHg 76%
    04:00 +2°C° 0 mm 10 m/s 766 mmHg 77%
    05:00 +2°C° 0 mm 10 m/s 766 mmHg 78%
    06:00 +2°C° 0 mm 9 m/s 766 mmHg 79%
    07:00 +2°C° 0 mm 9 m/s 766 mmHg 79%
    08:00 +2°C° 0 mm 9 m/s 766 mmHg 79%
    09:00 +2°C° 0 mm 9 m/s 766 mmHg 79%
    10:00 +2°C° 0 mm 10 m/s 766 mmHg 78%
    11:00 +3°C° 0 mm 10 m/s 766 mmHg 77%
    12:00 +3°C° 0 mm 10 m/s 765 mmHg 76%
    13:00 +3°C° 0 mm 10 m/s 765 mmHg 75%
    14:00 +3°C° 0 mm 10 m/s 765 mmHg 74%
    15:00 +3°C° 0 mm 10 m/s 765 mmHg 73%
    16:00 +3°C° 0 mm 10 m/s 765 mmHg 73%
    17:00 +3°C° 0 mm 10 m/s 764 mmHg 73%
    18:00 +2°C° 0 mm 10 m/s 764 mmHg 74%
    19:00 +2°C° 0 mm 10 m/s 764 mmHg 74%
    20:00 +2°C° 0 mm 10 m/s 764 mmHg 74%
    21:00 +2°C° 0 mm 10 m/s 764 mmHg 74%
    22:00 +2°C° 0 mm 10 m/s 764 mmHg 74%
    23:00 +2°C° 0 mm 10 m/s 764 mmHg 74%

    23 Februarie, Vineri

    Timp Temperatura Precipitaţii Vânt Presiune Umiditate
    00:00 +3°C° 0 mm 11 m/s 764 mmHg 75%
    01:00 +3°C° 0 mm 10 m/s 764 mmHg 75%
    02:00 +2°C° 0 mm 10 m/s 764 mmHg 75%
    03:00 +2°C° 0 mm 10 m/s 764 mmHg 75%
    04:00 +2°C° 0 mm 10 m/s 764 mmHg 75%
    05:00 +2°C° 0 mm 10 m/s 764 mmHg 75%
    06:00 +2°C° 0 mm 10 m/s 764 mmHg 76%
    07:00 +2°C° 0 mm 10 m/s 764 mmHg 76%
    08:00 +2°C° 0 mm 10 m/s 765 mmHg 76%
    09:00 +2°C° 0 mm 10 m/s 765 mmHg 76%
    10:00 +2°C° 0 mm 10 m/s 765 mmHg 76%
    11:00 +2°C° 0 mm 10 m/s 765 mmHg 76%
    12:00 +2°C° 0 mm 10 m/s 765 mmHg 75%
    13:00 +2°C° 0 mm 10 m/s 765 mmHg 75%
    14:00 +2°C° 0 mm 10 m/s 765 mmHg 74%
    15:00 +2°C° 0 mm 9 m/s 765 mmHg 73%
    16:00 +2°C° 0 mm 9 m/s 765 mmHg 73%
    17:00 +2°C° 0 mm 9 m/s 765 mmHg 72%
    18:00 +2°C° 0 mm 9 m/s 765 mmHg 72%
    19:00 +2°C° 0 mm 9 m/s 765 mmHg 72%
    20:00 +2°C° 0 mm 9 m/s 766 mmHg 72%
    21:00 +2°C° 0 mm 9 m/s 766 mmHg 72%
    22:00 +2°C° 0 mm 9 m/s 766 mmHg 72%
    23:00 +2°C° 0 mm 9 m/s 766 mmHg 72%
    Arată mai mult